Flag for Canada Weather past 2 weeks in Owen Sound, Ontario, Canada

Now
23 °F

Snow flurries. Overcast.


Feels Like: 12 °F
Forecast: 15 / 29 °F
Wind: 10 mph from North

Location: Wiarton

Current Time: Mar 27, 2015 at 4:01:42 AM

Latest Report: Mar 27, 2015 at 3:00 AM


Visibility: 15 mi

Pressure: 29.90 "Hg

Humidity: 86%

Dew point: 19 °F

Location of Owen SoundLocation

Historic Weather in Owen Sound — Graph

°F

Owen Sound temperature yesterday

Maximum temperature yesterday: 37 °F (at 1:00 PM)
Minimum temperature yesterday: 28 °F (at 11:00 PM)
Average temperature yesterday: 34 °F

Past Weeks' High & Low Weather Summary

 TemperatureHumidityPressure
High43 °F (Mar 13, 2:00 PM)100% (Mar 14, 3:00 AM)30.68 "Hg (Mar 14, 3:00 AM)
Low5 °F (Mar 23, 7:00 AM)26% (Mar 19, 1:00 PM)29.75 "Hg (Mar 17, 2:00 AM)
Average28 °F70%30.13 "Hg
* Reported Mar 12 3:00 AM — Mar 27 3:00 AM, Owen Sound, Weather by CustomWeather, © 2015

Note: Actual official high and low records may vary slightly from our data, if they occured in-between our weather recording intervals... More about our weather records

Advertising

Owen Sound weather history for previous 24 hours

 ConditionsComfort  
Time TempWeatherWind HumidityBarometerVisibility
3:00 AM
Fri, Mar 27
23 °FSnow flurries. Overcast.10 mph86%29.90 "Hg15 mi
2:00 AM25 °FSnow flurries. Overcast.12 mph80%29.88 "Hg15 mi
1:00 AM27 °FSnow flurries. Low clouds.6 mph86%29.87 "Hg12 mi
12:00 AM28 °FSnow flurries. Mostly cloudy.5 mph100%29.85 "Hg3 mi
11:00 PM
Thu, Mar 26
28 °FSnow flurries. Low clouds.10 mph93%29.85 "Hg15 mi
10:00 PM30 °FSnow flurries. Mostly cloudy.9 mph93%29.85 "Hg10 mi
9:00 PM32 °FSnow flurries. Mostly cloudy.10 mph93%29.84 "Hg5 mi
8:45 PM32 °FSnow flurries. Mostly cloudy.7 mph93%29.84 "Hg3 mi
8:00 PM32 °FSnow flurries. Mostly cloudy.7 mph93%29.83 "Hg4 mi
7:00 PM34 °FSnow flurries. More clouds than sun.5 mph87%29.83 "Hg15 mi
6:00 PM34 °FSnow flurries. More clouds than sun.3 mph87%29.80 "Hg15 mi
5:00 PM36 °FMore clouds than sun.5 mph81%29.79 "Hg15 mi
4:00 PM36 °FOvercast.6 mph75%29.79 "Hg15 mi
3:00 PM36 °FMore clouds than sun.5 mph81%29.79 "Hg15 mi
2:00 PM36 °FMore clouds than sun.6 mph81%29.80 "Hg15 mi
1:00 PM37 °FOvercast.6 mph75%29.80 "Hg15 mi
12:00 PM36 °FOvercast.8 mph81%29.82 "Hg15 mi
11:00 AM36 °FPartly sunny.7 mph81%29.83 "Hg12 mi
10:00 AM36 °FOvercast.7 mph81%29.84 "Hg12 mi
9:00 AM34 °FOvercast.7 mph87%29.84 "Hg12 mi
8:00 AM34 °FOvercast.7 mph87%29.83 "Hg10 mi
7:00 AM34 °FOvercast.9 mph87%29.85 "Hg10 mi
6:00 AM36 °FOvercast.14 mph81%29.85 "Hg10 mi
5:00 AM36 °FOvercast.16 mph81%29.87 "Hg10 mi
4:00 AM36 °FOvercast.16 mph81%29.87 "Hg12 mi
Weather by CustomWeather, © 2015

See weather overviewHow to use our weather pages